www.pogodaiklimat.ru

Погода и климат >> Архив погоды >> Япония >> Симидзу


ПОГОДА в Симидзу

  • Прогноз погоды в Симидзу
  • Монитор погоды в Симидзу

АРХИВ ПОГОДЫ в Симидзу

Время (UTC), дата Ветер
(напр.,м/с)
 
Видим.   Явления Облачность Т
(С)
Тd
(С)
f
(%)
Тe
(С)
Тes
(С)
Комфортность P
(гПа)
Po
(гПа)
Тmin
(С)
Tmax
(С)
R
(мм)
R24
(мм)
S
(см)
10 10.08 В 3 11 км н/о +27.4 +25.6 90 +40 +40 очень
душно
1007.1 1003.3
11 10.08 В 3 11 км н/о +27.3 +25.5 90 +40 +40 очень
душно
1007.7 1003.9
12 10.08 В 3 11 км н/о +27.4 +25.6 90 +40 +40 очень
душно
1008.4 1004.6 +30.2
13 10.08 СВ 3 13 км н/о +27.2 +25.8 92 +40 +40 очень
душно
1008.3 1004.5
14 10.08 В 2 10 км н/о +27.3 +25.9 92 +41 +41 опасность
перегрева
1008.3 1004.5
15 10.08 В 3 10 км н/о +27.1 +25.5 91 +40 +40 очень
душно
1007.8 1004.0
16 10.08 СВ 3 20 км н/о +27.1 +25.9 93 +40 +40 очень
душно
1007.2 1003.4
17 10.08 СВ 2 12 км н/о +27.0 +25.8 93 +40 +40 очень
душно
1007.0 1003.2
18 10.08 В 2 9000 м дымка н/о +27.0 +25.6 92 +40 +40 очень
душно
1006.9 1003.1
19 10.08 СВ 2 10 км н/о +26.9 +25.5 92 +39 +39 очень
душно
1006.6 1002.8
20 10.08 В 3 9000 м дымка н/о +26.9 +25.5 92 +39 +39 очень
душно
1006.7 1002.9
21 10.08 В 3 7000 м дымка н/о +27.0 +25.6 92 +40 +40 очень
душно
1006.7 1002.9
22 10.08 СВ 3 10 км н/о +27.5 +25.9 91 +41 +41 опасность
перегрева
1006.6 1002.8
23 10.08 В 3 9000 м дымка н/о +27.7 +25.3 87 +40 +40 очень
душно
1006.7 1002.9
00 11.08 СВ 3 16 км н/о +28.3 +25.5 85 +42 +42 опасность
перегрева
1006.6 1002.8 +26.9
01 11.08 В 4 9000 м дымка н/о +28.4 +25.6 85 +42 +42 опасность
перегрева
1006.8 1003.0
02 11.08 В 4 12 км н/о +28.9 +25.9 84 +43 +43 опасность
перегрева
1007.0 1003.2
03 11.08 В 4 11 км н/о +28.9 +26.1 85 +44 +44 опасность
перегрева
1006.7 1002.9
04 11.08 В 4 11 км н/о +28.9 +25.5 82 +43 +43 опасность
перегрева
1006.3 1002.5
05 11.08 СВ 2 10 км н/о +28.7 +25.9 85 +43 +43 опасность
перегрева
1006.1 1002.3
06 11.08 В 3 11 км н/о +29.4 +26.2 83 +45 +45 опасность
перегрева
1005.4 1001.6
07 11.08 В 1 10 км н/о +28.2 +25.8 87 +42 +42 опасность
перегрева
1005.5 1001.7
08 11.08 СВ 2 15 км в посл. час дождь н/о +27.9 +26.3 91 +42 +42 опасность
перегрева
1005.2 1001.4
09 11.08 В 2 7000 м дымка {дождь} н/о +28.1 +26.5 91 +43 +43 опасность
перегрева
1005.4 1001.6
10 11.08 В 4 8000 м дымка н/о +28.1 +26.9 93 +44 +44 опасность
перегрева
1005.8 1002.0
11 11.08 В 4 10 км н/о +27.2 +25.0 88 +39 +39 очень
душно
1006.2 1002.4
12 11.08 В 4 7000 м дымка {дождь} н/о +28.0 +26.9 94 +44 +44 опасность
перегрева
1006.7 1002.9 +30.1 0.0
13 11.08 В 4 7000 м дымка н/о +27.9 +26.8 94 +44 +44 опасность
перегрева
1006.5 1002.7
14 11.08 В 6 7000 м дымка н/о +27.7 +26.7 94 +43 +43 опасность
перегрева
1006.1 1002.3
15 11.08 В 4 6000 м дымка н/о +27.6 +26.6 94 +42 +42 опасность
перегрева
1005.7 1001.9
16 11.08 В 4 6000 м дымка н/о +27.6 +26.6 94 +42 +42 опасность
перегрева
1005.0 1001.2
17 11.08 В 4 5000 м дымка н/о +27.6 +26.6 94 +42 +42 опасность
перегрева
1004.5 1000.7
18 11.08 В 4 7000 м дымка н/о +27.5 +26.3 93 +42 +42 опасность
перегрева
1004.3 1000.5
19 11.08 В 4 6000 м дымка н/о +27.6 +26.4 93 +42 +42 опасность
перегрева
1004.1 1000.3
20 11.08 В 3 5000 м слаб. дождь н/о +27.5 +26.3 93 +42 +42 опасность
перегрева
1004.2 1000.4
21 11.08 В 3 7000 м слаб. дождь н/о +27.6 +26.6 94 +42 +42 опасность
перегрева
1004.3 1000.5
22 11.08 В 4 7000 м в посл. час дождь н/о +28.1 +26.3 90 +43 +43 опасность
перегрева
1004.7 1000.9
23 11.08 В 3 8000 м дымка н/о +27.9 +25.7 88 +41 +41 опасность
перегрева
1004.8 1001.0
00 12.08 В 4 12 км {дождь} н/о +28.1 +26.1 89 +42 +42 опасность
перегрева
1004.5 1000.7 +27.4 0.0
01 12.08 СВ 2 7000 м слаб. дождь н/о +27.6 +26.7 95 +43 +43 опасность
перегрева
1004.7 1000.9
02 12.08 В 4 9000 м в посл. час дождь н/о +29.1 +26.3 85 +44 +44 опасность
перегрева
1004.7 1000.9
03 12.08 В 3 10 км {дождь} н/о +28.7 +26.1 86 +43 +43 опасность
перегрева
1004.4 1000.6
04 12.08 В 4 8000 м дымка н/о +29.6 +25.8 80 +44 +44 опасность
перегрева
1004.0 1000.2
05 12.08 СВ 3 8000 м дымка н/о +30.0 +26.6 82 +46 +46 опасность
перегрева
1003.6 999.8
06 12.08 В 4 7000 м дымка {дождь} н/о +29.3 +26.9 87 +46 +46 опасность
перегрева
1003.4 999.6 0.0
07 12.08 В 4 7000 м дымка н/о +29.3 +26.7 86 +46 +46 опасность
перегрева
1003.1 999.3
08 12.08 В 4 7000 м дымка н/о +29.2 +26.6 86 +45 +45 опасность
перегрева
1003.0 999.2
09 12.08 В 6 7000 м дымка н/о +28.6 +26.4 88 +44 +44 опасность
перегрева
1002.8 999.0
10 12.08 В 4 6000 м дымка н/о +28.2 +26.6 91 +44 +44 опасность
перегрева
1003.3 999.5
11 12.08 В 4 6000 м дымка н/о +28.1 +26.5 91 +43 +43 опасность
перегрева
1003.2 999.4
12 12.08 В 5 6000 м дымка н/о +28.2 +26.2 89 +43 +43 опасность
перегрева
1003.3 999.5 +30.5 0.0
13 12.08 В 5 7000 м дымка н/о +28.3 +26.1 88 +43 +43 опасность
перегрева
1003.2 999.4
14 12.08 В 3 7000 м дымка н/о +28.3 +26.1 88 +43 +43 опасность
перегрева
1002.9 999.1
15 12.08 В 3 7000 м дымка н/о +28.3 +25.9 87 +42 +42 опасность
перегрева
1002.4 998.6
16 12.08 В 4 7000 м дымка н/о +28.4 +26.0 87 +43 +43 опасность
перегрева
1001.9 998.1
17 12.08 В 4 7000 м дымка н/о +28.3 +25.7 86 +42 +42 опасность
перегрева
1001.2 997.4
18 12.08 В 3 8000 м дымка н/о +28.4 +25.6 85 +42 +42 опасность
перегрева
1000.5 996.7
19 12.08 В 4 8000 м дымка н/о +28.5 +25.7 85 +42 +42 опасность
перегрева
1000.2 996.4
20 12.08 В 4 7000 м дымка н/о +28.4 +25.6 85 +42 +42 опасность
перегрева
1000.4 996.6
21 12.08 В 3 8000 м дымка н/о +28.5 +25.3 83 +42 +42 опасность
перегрева
1000.6 996.8
22 12.08 В 3 9000 м дымка н/о +29.0 +25.2 80 +42 +42 опасность
перегрева
1000.6 996.8
23 12.08 Ю 2 8000 м дымка н/о +29.8 +25.8 79 +44 +44 опасность
перегрева
1000.4 996.6
00 13.08 В 4 6000 м дымка н/о +29.9 +26.1 80 +45 +45 опасность
перегрева
1000.2 996.4 +28.1
01 13.08 З 2 8000 м дымка н/о +29.5 +25.3 78 +43 +43 опасность
перегрева
1000.1 996.3
02 13.08 В 4 7000 м дымка н/о +29.3 +25.3 79 +43 +43 опасность
перегрева
999.8 996.0
03 13.08 В 5 7000 м слаб. дождь н/о +29.3 +25.3 79 +43 +43 опасность
перегрева
999.8 996.0
04 13.08 В 4 6000 м дымка н/о +30.4 +25.9 77 +45 +45 опасность
перегрева
999.4 995.7
05 13.08 В 5 7000 м дымка н/о +30.1 +26.5 81 +46 +46 опасность
перегрева
998.9 995.1
06 13.08 В 5 6000 м дымка {дождь} н/о +29.9 +26.5 82 +46 +46 опасность
перегрева
998.5 994.7 0.0
07 13.08 В 4 5000 м дымка н/о +29.7 +26.5 83 +46 +46 опасность
перегрева
998.3 994.5
08 13.08 В 5 5000 м дымка н/о +29.4 +26.6 85 +45 +45 опасность
перегрева
997.9 994.1
09 13.08 В 6 4600 м дымка н/о +28.7 +26.1 86 +43 +43 опасность
перегрева
997.8 994.0
10 13.08 В 5 4500 м дымка н/о +28.5 +26.5 89 +44 +44 опасность
перегрева
998.3 994.5
11 13.08 В 4 4600 м дымка н/о +28.4 +26.6 90 +44 +44 опасность
перегрева
998.7 994.9
12 13.08 В 5 4700 м дымка н/о +28.4 +26.4 89 +43 +43 опасность
перегрева
998.8 995.0 +30.7 0.0
13 13.08 В 5 4400 м дымка н/о +28.3 +26.5 90 +44 +44 опасность
перегрева
998.2 994.4
14 13.08 В 5 4500 м в посл. час дождь н/о +28.3 +26.7 91 +44 +44 опасность
перегрева
997.9 994.1
15 13.08 В 6 4000 м дымка {дождь} н/о +28.2 +26.8 92 +44 +44 опасность
перегрева
997.4 993.6
16 13.08 В 5 4400 м в посл. час дождь н/о +28.0 +26.4 91 +43 +43 опасность
перегрева
996.6 992.8
17 13.08 В 5 4800 м в посл. час дождь н/о +27.9 +26.5 92 +43 +43 опасность
перегрева
995.5 991.7
18 13.08 В 4 5000 м дымка {дождь} н/о +28.1 +26.1 89 +42 +42 опасность
перегрева
994.9 991.1 0.0
19 13.08 В 5 3600 м слаб. дождь н/о +27.5 +26.5 94 +42 +42 опасность
перегрева
994.8 991.0
20 13.08 В 5 3200 м слаб. дождь н/о +27.1 +26.4 96 +41 +41 опасность
перегрева
994.2 990.4
21 13.08 В 5 4000 м в посл. час дождь н/о +27.2 +26.3 95 +41 +41 опасность
перегрева
994.1 990.3
22 13.08 В 4 4400 м слаб. дождь н/о +27.2 +26.5 96 +42 +42 опасность
перегрева
993.7 989.9
23 13.08 В 6 4900 м в посл. час дождь н/о +27.4 +26.5 95 +42 +42 опасность
перегрева
993.2 989.4
00 14.08 В 4 2200 м слаб. дождь н/о +27.0 +26.7 98 +42 +42 опасность
перегрева
992.6 988.8 +26.9 9
01 14.08 В 6 2500 м слаб. дождь н/о +26.9 +26.7 99 +42 +42 опасность
перегрева
991.8 988.0
02 14.08 В 6 2000 м дождь н/о +27.0 +27.0 100 +42 +42 опасность
перегрева
991.0 987.2
03 14.08 В 5 2600 м дождь н/о +27.1 +26.9 99 +42 +42 опасность
перегрева
990.0 986.2
04 14.08 В 8 3100 м слаб. дождь н/о +27.5 +27.2 98 +43 +43 опасность
перегрева
989.7 985.9
05 14.08 В 6 3500 м в посл. час дождь н/о +28.1 +27.2 95 +45 +45 опасность
перегрева
988.5 984.8
06 14.08 В 6 3200 м слаб. дождь н/о +28.1 +27.0 94 +44 +44 опасность
перегрева
987.4 983.7 12
07 14.08 В 8 н/о н/о +28.1 +26.9 93 +44 +44 опасность
перегрева
987.1 983.4
08 14.08 В 7 н/о н/о +28.2 +27.0 93 +44 +44 опасность
перегрева
986.4 982.7
09 14.08 В 10 н/о н/о +27.9 +26.8 94 +44 +44 опасность
перегрева
986.2 982.5
10 14.08 В 11 н/о н/о +28.0 +26.8 93 +44 +44 опасность
перегрева
986.1 982.4
11 14.08 В 12 н/о н/о +28.4 +26.8 91 +44 +44 опасность
перегрева
986.1 982.4
12 14.08 В 10 н/о н/о +28.3 +26.7 91 +44 +44 опасность
перегрева
985.3 981.6 +28.6 14
13 14.08 В 8 н/о н/о +27.3 +26.6 96 +42 +42 опасность
перегрева
981.3 977.6
14 14.08 В 15 н/о н/о +26.8 +26.6 99 +41 +41 опасность
перегрева
981.5 977.8
15 14.08 В 13 н/о н/о +27.1 +27.1 100 +43 +43 опасность
перегрева
981.3 977.6
16 14.08 В 11 н/о н/о +27.5 +26.8 96 +43 +43 опасность
перегрева
980.7 977.0
17 14.08 В 12 н/о н/о +27.0 +26.8 99 +42 +42 опасность
перегрева
977.8 974.1
18 14.08 ЮВ 11 н/о н/о +27.4 +27.2 99 +43 +43 опасность
перегрева
979.8 976.1 27
19 14.08 В 9 н/о н/о +27.3 +27.1 99 +43 +43 опасность
перегрева
979.5 975.8
20 14.08 В 10 н/о н/о +27.1 +26.9 99 +42 +42 опасность
перегрева
977.1 973.4
21 14.08 ЮВ 9 н/о н/о +27.4 +27.4 100 +44 +44 опасность
перегрева
976.7 973.0
22 14.08 ЮВ 4 н/о н/о +27.2 +27.2 100 +43 +43 опасность
перегрева
978.0 974.3
23 14.08 ЮВ 2 н/о н/о +27.7 +27.7 100 +45 +45 опасность
перегрева
978.5 974.8
00 15.08 Ю 6 н/о н/о +27.0 +27.0 100 +42 +42 опасность
перегрева
979.1 975.4 +26.8 31
01 15.08 Ю 4 н/о н/о +27.6 +27.6 100 +45 +45 опасность
перегрева
979.5 975.8
02 15.08 Ю 3 н/о н/о +28.1 +27.4 96 +45 +45 опасность
перегрева
979.6 975.9
04 15.08 ЮЗ 8 н/о н/о +26.8 +26.5 98 +41 +41 опасность
перегрева
981.0 977.3
05 15.08 ЮЗ 9 н/о н/о +27.2 +26.7 97 +42 +42 опасность
перегрева
981.7 978.0
06 15.08 ЮЗ 11 н/о н/о +27.4 +26.5 95 +42 +42 опасность
перегрева
982.5 978.8 2
07 15.08 ЮЗ 11 н/о н/о +26.7 +26.4 98 +41 +41 опасность
перегрева
983.7 980.0
08 15.08 ЮЗ 10 н/о н/о +26.8 +26.5 98 +41 +41 опасность
перегрева
984.8 981.1
09 15.08 ЮЗ 10 н/о н/о +26.9 +26.6 98 +41 +41 опасность
перегрева
986.2 982.5
10 15.08 ЮЗ 10 н/о н/о +26.9 +26.6 98 +41 +41 опасность
перегрева
987.8 984.0
11 15.08 ЮЗ 9 н/о н/о +26.9 +26.4 97 +41 +41 опасность
перегрева
989.7 985.9
12 15.08 ЮЗ 9 н/о н/о +27.1 +26.4 96 +41 +41 опасность
перегрева
990.5 986.7 +29.1 9
13 15.08 ЮЗ 9 н/о н/о +27.4 +26.4 94 +42 +42 опасность
перегрева
991.4 987.6
14 15.08 ЮЗ 8 н/о н/о +27.6 +26.2 92 +42 +42 опасность
перегрева
992.2 988.4
15 15.08 ЮЗ 8 н/о н/о +27.5 +25.9 91 +41 +41 опасность
перегрева
993.1 989.3
16 15.08 ЮЗ 8 н/о н/о +27.4 +25.8 91 +41 +41 опасность
перегрева
993.6 989.8
17 15.08 ЮЗ 7 н/о н/о +27.4 +25.8 91 +41 +41 опасность
перегрева
994.1 990.3
18 15.08 ЮЗ 8 н/о н/о +27.4 +25.6 90 +40 +40 очень
душно
994.9 991.1 0.0
19 15.08 ЮЗ 8 н/о н/о +27.2 +25.8 92 +40 +40 очень
душно
995.7 991.9
20 15.08 ЮЗ 7 н/о н/о +27.2 +25.6 91 +40 +40 очень
душно
996.4 992.6
21 15.08 ЮЗ 8 н/о н/о +27.2 +25.4 90 +40 +40 очень
душно
997.2 993.4
22 15.08 ЮЗ 6 н/о н/о +27.3 +25.5 90 +40 +40 очень
душно
998.0 994.2
23 15.08 З 7 н/о н/о +27.7 +25.3 87 +40 +40 очень
душно
999.0 995.2
00 16.08 З 7 н/о н/о +28.8 +25.6 83 +43 +43 опасность
перегрева
999.5 995.7 +27.1 0.0
01 16.08 З 6 н/о н/о +28.9 +25.3 81 +42 +42 опасность
перегрева
999.9 996.1
02 16.08 З 6 н/о н/о +29.3 +25.3 79 +43 +43 опасность
перегрева
1000.1 996.3
03 16.08 З 6 н/о н/о +29.3 +25.7 81 +43 +43 опасность
перегрева
999.9 996.1
04 16.08 З 5 н/о н/о +29.3 +25.7 81 +43 +43 опасность
перегрева
999.8 996.0
05 16.08 З 4 н/о н/о +29.5 +25.9 81 +44 +44 опасность
перегрева
1000.0 996.2
06 16.08 З 4 н/о н/о +29.6 +25.8 80 +44 +44 опасность
перегрева
1000.0 996.2 0.0
07 16.08 ЮЗ 4 н/о н/о +29.4 +26.2 83 +45 +45 опасность
перегрева
999.8 996.0
08 16.08 ЮЗ 4 н/о н/о +28.9 +26.3 86 +44 +44 опасность
перегрева
1000.0 996.2
11 16.08 З 4 н/о н/о +27.5 +25.7 90 +41 +41 опасность
перегрева
1001.9 998.1
12 16.08 З 4 н/о н/о +27.4 +25.6 90 +40 +40 очень
душно
1002.1 998.3 +30.1 0.0
13 16.08 З 3 н/о н/о +27.3 +25.7 91 +40 +40 очень
душно
1002.1 998.3
15 16.08 З 3 н/о н/о +27.2 +25.6 91 +40 +40 очень
душно
1002.0 998.2
16 16.08 З 2 н/о н/о +27.0 +25.6 92 +40 +40 очень
душно
1002.0 998.2
17 16.08 СЗ 1 н/о н/о +26.5 +25.5 94 +39 +39 очень
душно
1002.2 998.4
18 16.08 С 2 н/о н/о +25.4 +24.7 96 +36 +36 очень
душно
1002.6 998.8 0.0
19 16.08 С 3 н/о н/о +25.3 +22.6 85 +33 +33 очень
душно
1003.0 999.2
20 16.08 С 2 н/о н/о +25.1 +23.9 93 +34 +34 очень
душно
1003.3 999.5
21 16.08 С 3 н/о н/о +25.1 +22.2 84 +33 +33 очень
душно
1003.8 1000.0
22 16.08 С 2 н/о н/о +26.3 +22.8 81 +35 +35 очень
душно
1004.3 1000.5
23 16.08 ЮВ 1 н/о н/о +28.6 +24.4 78 +40 +40 очень
душно
1004.5 1000.7
00 17.08 ЮЗ 1 н/о н/о +28.3 +23.9 77 +39 +39 очень
душно
1004.8 1001.0 +24.8 0.0
01 17.08 ЮЗ 2 н/о н/о +29.0 +24.3 76 +41 +41 опасность
перегрева
1004.6 1000.8
02 17.08 ЮЗ 1 н/о н/о +30.2 +25.3 75 +44 +44 опасность
перегрева
1004.7 1000.9
04 17.08 ЮЗ 3 н/о н/о +29.9 +24.8 74 +43 +43 опасность
перегрева
1004.5 1000.7
05 17.08 ЮЗ 4 н/о н/о +29.9 +24.5 73 +42 +42 опасность
перегрева
1004.4 1000.6
06 17.08 З 4 н/о н/о +29.9 +24.5 73 +42 +42 опасность
перегрева
1004.0 1000.2 0.0
07 17.08 З 5 н/о н/о +29.4 +24.3 74 +41 +41 опасность
перегрева
1004.0 1000.2
08 17.08 З 6 н/о н/о +28.7 +23.6 74 +39 +39 очень
душно
1003.8 1000.0
09 17.08 З 5 н/о н/о +28.1 +23.7 77 +39 +39 очень
душно
1004.1 1000.3

 

Местоположение метеостанции Симидзу (Япония): широта 32.72 долгота 133.01 высота над уровнем моря 33 м.

В архиве по умолчанию представлена погода в Симидзу за последнюю неделю. Архивные данные за месяц целиком и за предыдущие месяцы, начиная с января 2011 года, Вы можете получить, выбрав интересующий диапазон дат из раскрывающегося списка и нажав кнопку "Ввод!".


*Определитесь, кто Вы:
робот инопланетянин человек

Внимание! Время в таблицах - всемирное. Для получения местного времени необходимо прибавить поправку, которая равна 9 ч.

Смотрите также архив погоды в соседних городах и на ближайших метеорологических станциях:

Погода в Сукумо (Япония) (37 км)
Погода в Увадзиме (Япония) (71 км)
Погода в Коти (Япония) (107 км)
Погода в Муротомисаки (Япония) (124 км)
Погода в Мацуяме (Япония) (127 км)
Погода в Нобеоке (Япония) (128 км)
Погода в Оите (Япония) (142 км)
Погода в Куре (Япония) (173 км)
Погода в Миядзаки (Япония) (174 км)
Погода на Асо (Япония) (183 км)

Пояснения к столбцам:

Ветер - указаны скорость ветра в м/с - средняя за 10 мин, порывы в срок и между сроками (в фигурных скобках) и направление, откуда дует ветер: С - северный, СВ - северо-восточный, В - восточный, ЮВ - юго-восточный, Ю - южный, ЮЗ - юго-западный, З - западный, СЗ - северо-западный.
Видимость - горизонтальная дальность видимости в метрах или километрах. При видимости от 1 до 10 км при отсутствии осадков обычно наблюдается дымка, при ухудшении видимости до 1 км и менее - туман. В сухую погоду видимость может ухудшаться дымом, пылью или мглою.
Явления - указаны атмосферные явления, наблюдавшиеся в срок или в последний час перед сроком; фигурными скобками обозначены явления, наблюдавшиеся между сроками (за 1-3 часа до срока); квадратными скобками обозначены град или гололедные отложения с указанием их диаметра в мм.
Облачность - указаны через наклонную черту общая и нижняя облачность в баллах и высота нижней границы облаков в метрах; квадратными скобками обозначены формы облаков: Ci - перистые, Cs - перисто-слоистые, Cc - перисто-кучевые, Ac - высококучевые, As - высокослоистые, Sc - слоисто-кучевые, Ns - слоисто-дождевые, Cu - кучевые, Cb - кучево-дождевые. Подробнее классификацию облаков см. в Атласе облаков (PDF).
T - Температура воздуха - температура, измеренная на высоте 2 м над землей.
Td - Температура точки росы - температура, при понижении до которой содержащийся в воздухе водяной пар достигнет насыщения.
f - Относительная влажность воздуха - влажноcть воздуха, измеренная на высоте 2 м над землей.
Te - Эффективная температура - температура, которую ощущает одетый по сезону человек в тени. Характеристика душности погоды. При расчете учитывается влияние влажности воздуха и скорости ветра на теплоощущения человека.
Tes - Эффективная температура на солнце - температура, которую ощущает человек, с поправкой на солнечный нагрев. Характеристика знойности погоды. Зависит от высоты солнца над горизонтом, облачности и скорости ветра. Ночью, в пасмурную погоду, а также при ветре 12 м/с и более поправка равна нулю.
P - Атмосферное давление - приведенное к уровню моря атмосферное давление.
Po - Атмосферное давление - измеренное на уровне метеостанции атмосферное давление.
Tmin - Минимальная температура - минимум температуры воздуха на высоте 2 м над землей.
Tmax - Максимальная температура - максимум температуры воздуха на высоте 2 м над землей.
R - Количество осадков - Количество выпавших осадков за период времени, мм. При наведении курсора мыши на число - период времени, за который выпало указанное количество осадков.
R24 - Количество осадков - Количество выпавших осадков за 24 часа, мм.
S - Снежный покров - Высота снежного покрова, см. При наведении курсора мыши на число - состояние снежного покрова и степень покрытия местности в баллах.